FW6530 Weather Reports


Display with metric or nautical units.
time (UTC)temp
F
wind
direction
speed
MPH
gust
MPH
rain 1hr
in
rain 24hr
in
rain mn
in
humidity
%
barometer
mb
20260902130523 55 326 2.0 5.0 0.00 0.00 0.00 84 1027.4
20260902130055 55 327 2.0 5.0 0.00 0.00 0.00 84 1027.4
20260902125523 55 329 2.0 4.0 0.00 0.01 0.00 84 1027.4
20260902125023 55 330 1.0 4.0 0.00 0.01 0.00 85 1027.4
20260902124546 55 330 2.0 4.0 0.00 0.01 0.00 85 1027.3
20260902124024 55 331 2.0 4.0 0.00 0.01 0.00 85 1027.4
20260902123525 54 332 3.0 4.0 0.00 0.01 0.00 85 1027.4
20260902123041 54 333 3.0 4.0 0.00 0.01 0.00 85 1027.4
20260902122524 54 334 2.0 3.0 0.00 0.01 0.00 85 1027.4
20260902122027 54 334 2.0 4.0 0.00 0.01 0.00 85 1027.3
20260902121546 54 334 1.0 4.0 0.00 0.01 0.00 85 1027.3
20260902121026 54 334 2.0 4.0 0.00 0.01 0.00 84 1027.3
20260902120524 55 334 2.0 4.0 0.00 0.01 0.00 84 1027.3
20260902120049 55 334 2.0 4.0 0.00 0.01 0.00 84 1027.2
20260902115524 55 334 2.0 4.0 0.00 0.02 0.00 84 1027.3
20260902115024 55 334 2.0 4.0 0.00 0.02 0.00 84 1027.3
20260902114607 55 334 2.0 3.0 0.00 0.02 0.00 83 1027.3
20260902114024 55 334 2.0 3.0 0.00 0.02 0.00 83 1027.3
20260902113524 55 334 1.0 3.0 0.00 0.02 0.00 83 1027.2
20260902113040 55 334 2.0 3.0 0.00 0.02 0.00 83 1027.2
20260902112524 56 334 2.0 3.0 0.00 0.02 0.00 82 1027.2
20260902112024 56 334 0.0 2.0 0.00 0.02 0.00 81 1027.3
20260902111543 56 0 0.0 2.0 0.00 0.02 0.00 81 1027.2
20260902111024 56 334 1.0 3.0 0.00 0.02 0.00 81 1027.2
20260902110523 56 334 1.0 4.0 0.00 0.02 0.00 81 1027.2
20260902110059 57 334 2.0 4.0 0.00 0.02 0.00 81 1027.3
20260902105525 57 334 1.0 3.0 0.00 0.02 0.00 81 1027.3
20260902105027 57 334 2.0 4.0 0.00 0.02 0.00 81 1027.2
20260902104558 57 334 2.0 4.0 0.00 0.02 0.00 81 1027.2
20260902104024 57 335 3.0 4.0 0.00 0.02 0.00 81 1027.2
20260902103523 57 336 2.0 4.0 0.00 0.02 0.00 80 1027.2
20260902103047 57 336 2.0 4.0 0.00 0.02 0.00 80 1027.2
20260902102525 57 338 2.0 3.0 0.00 0.02 0.00 80 1027.2
20260902102024 57 338 1.0 3.0 0.00 0.02 0.00 79 1027.3
20260902101549 58 338 0.0 3.0 0.00 0.02 0.00 79 1027.2
20260902101024 58 338 2.0 3.0 0.00 0.02 0.00 79 1027.2
20260902100524 58 338 2.0 3.0 0.00 0.02 0.00 78 1027.2
20260902100046 58 338 0.0 4.0 0.00 0.02 0.00 79 1027.2
20260902095524 58 0 0.0 4.0 0.00 0.02 0.00 78 1027.3
20260902095023 58 338 3.0 4.0 0.00 0.02 0.00 78 1027.3
20260902094543 58 338 2.0 4.0 0.00 0.02 0.00 78 1027.2
20260902094029 58 338 2.0 4.0 0.00 0.02 0.00 78 1027.2
20260902093523 58 339 2.0 4.0 0.00 0.02 0.00 78 1027.2
20260902093050 58 339 2.0 4.0 0.00 0.02 0.00 78 1027.2
20260902092524 58 0 0.0 0.0 0.00 0.02 0.00 77 1027.2
20260902092023 59 0 0.0 0.0 0.00 0.02 0.00 77 1027.2
20260902091542 59 0 0.0 0.0 0.00 0.02 0.00 77 1027.3
20260902091024 59 0 0.0 0.0 0.00 0.02 0.00 77 1027.2
20260902090524 59 0 0.0 3.0 0.00 0.02 0.00 77 1027.3
20260902090046 59 0 0.0 3.0 0.00 0.02 0.00 77 1027.3
20260902085524 60 339 1.0 3.0 0.00 0.03 0.00 76 1027.3
20260902085024 60 339 2.0 3.0 0.00 0.03 0.00 76 1027.4
20260902084541 60 339 2.0 3.0 0.00 0.03 0.00 75 1027.4
20260902084023 60 339 2.0 4.0 0.00 0.03 0.00 75 1027.4
20260902083525 60 339 2.0 4.0 0.00 0.03 0.00 75 1027.4
20260902083045 61 339 2.0 4.0 0.00 0.03 0.00 75 1027.5
20260902082527 61 339 2.0 4.0 0.00 0.03 0.00 74 1027.6
20260902082026 61 339 2.0 4.0 0.00 0.03 0.00 74 1027.6
20260902081550 62 339 0.0 3.0 0.00 0.03 0.00 74 1027.6
20260902081025 62 339 1.0 3.0 0.00 0.03 0.00 73 1027.6
20260902080527 62 339 1.0 3.0 0.00 0.03 0.00 73 1027.6
20260902080049 62 339 2.0 3.0 0.00 0.03 0.00 73 1027.6
20260902075527 63 339 1.0 3.0 0.00 0.03 0.00 72 1027.7
20260902075026 63 0 0.0 0.0 0.00 0.03 0.00 72 1027.8
20260902074554 63 0 0.0 0.0 0.00 0.03 0.00 72 1027.8
20260902074025 64 0 0.0 0.0 0.00 0.03 0.00 71 1027.8
20260902073526 64 0 0.0 0.0 0.00 0.03 0.00 71 1027.8
20260902073053 64 0 0.0 0.0 0.00 0.03 0.00 70 1027.7
20260902072526 64 0 0.0 2.0 0.00 0.03 0.00 70 1027.7
20260902072024 64 0 0.0 2.0 0.00 0.03 0.00 69 1027.6
20260902071545 64 0 0.0 2.0 0.00 0.03 0.00 69 1027.7
20260902071028 64 339 1.0 2.0 0.00 0.03 0.00 68 1027.6
20260902070524 65 0 0.0 1.0 0.00 0.03 0.00 68 1027.7
20260902070047 65 0 0.0 1.0 0.00 0.03 0.00 68 1027.6
20260902065526 65 0 0.0 1.0 0.00 0.03 0.00 67 1027.4
20260902065024 65 0 0.0 0.0 0.00 0.03 0.00 67 1027.5
20260902064547 66 0 0.0 2.0 0.00 0.03 0.00 66 1027.6
20260902064023 66 0 0.0 2.0 0.00 0.03 0.00 66 1027.6
20260902063527 66 339 1.0 2.0 0.00 0.03 0.00 66 1027.6
20260902063059 66 0 0.0 1.0 0.00 0.03 0.00 65 1027.6
20260902062523 66 0 0.0 1.0 0.00 0.03 0.00 65 1027.6
20260902062024 66 0 0.0 1.0 0.00 0.03 0.00 65 1027.6
20260902061545 66 0 0.0 0.0 0.00 0.03 0.00 65 1027.6
20260902061033 66 0 0.0 0.0 0.00 0.03 0.00 65 1027.5
20260902060527 66 0 0.0 0.0 0.00 0.03 0.00 65 1027.7
20260902060047 66 0 0.0 0.0 0.00 0.03 0.00 63 1027.6
20260902055524 67 0 0.0 0.0 0.00 0.03 0.03 64 1027.5
20260902055026 67 0 0.0 0.0 0.00 0.03 0.03 63 1027.6
20260902054544 67 0 0.0 0.0 0.00 0.03 0.03 63 1027.6
20260902054024 67 0 0.0 0.0 0.00 0.03 0.03 64 1027.5
20260902053524 67 0 0.0 0.0 0.00 0.03 0.03 63 1027.7
20260902053127 67 0 0.0 0.0 0.00 0.03 0.03 63 1027.6
20260902052524 67 0 0.0 1.0 0.00 0.03 0.03 61 1027.7
20260902052023 67 0 0.0 1.0 0.00 0.03 0.03 62 1027.7
20260902051548 68 0 0.0 1.0 0.00 0.03 0.03 61 1027.8
20260902051024 68 0 0.0 0.0 0.00 0.03 0.03 61 1027.7
20260902050526 68 0 0.0 3.0 0.00 0.03 0.03 61 1027.6
20260902050044 68 0 0.0 4.0 0.00 0.03 0.03 59 1027.6
20260902045526 68 0 1.0 4.0 0.00 0.05 0.03 59 1027.6
20260902045023 68 326 0.0 4.0 0.00 0.05 0.03 59 1027.7
20260902044544 68 326 1.0 4.0 0.00 0.05 0.03 59 1027.7
20260902044024 68 325 1.0 4.0 0.00 0.05 0.03 59 1027.8
20260902043523 68 320 1.0 4.0 0.00 0.05 0.03 60 1027.7
20260902043055 68 0 0.0 3.0 0.00 0.05 0.03 60 1027.8
20260902042524 68 314 1.0 3.0 0.00 0.05 0.03 60 1027.8
20260902042024 68 310 1.0 3.0 0.00 0.05 0.03 61 1027.7
20260902041602 67 0 0.0 1.0 0.00 0.05 0.03 62 1027.7
20260902041026 67 0 0.0 2.0 0.00 0.05 0.03 64 1027.7
20260902040526 67 310 0.0 2.0 0.00 0.05 0.03 64 1027.6
20260902040046 67 0 0.0 2.0 0.00 0.05 0.03 65 1027.6
20260902035523 67 0 0.0 2.0 0.00 0.05 0.03 67 1027.6
20260902035027 67 310 0.0 1.0 0.00 0.05 0.03 68 1027.6
20260902034554 67 0 0.0 1.0 0.00 0.05 0.03 67 1027.4
20260902034023 67 0 0.0 1.0 0.00 0.05 0.03 67 1027.4
20260902033524 67 0 0.0 2.0 0.00 0.05 0.03 68 1027.3
20260902033054 67 0 0.0 2.0 0.00 0.05 0.03 69 1027.2
20260902032526 67 310 0.0 2.0 0.00 0.05 0.03 68 1027.0
20260902032029 67 0 0.0 3.0 0.00 0.05 0.03 68 1027.0
20260902031557 67 0 0.0 3.0 0.00 0.05 0.03 68 1026.9
20260902031024 68 0 0.0 3.0 0.00 0.05 0.03 68 1026.9
20260902030527 68 310 1.0 4.0 0.00 0.05 0.03 67 1026.7
20260902030046 68 310 0.0 4.0 0.00 0.05 0.03 67 1026.6
20260902025525 68 310 2.0 4.0 0.00 0.05 0.03 67 1026.6
20260902025028 68 310 1.0 4.0 0.00 0.05 0.03 67 1026.5
20260902024541 68 310 1.0 5.0 0.00 0.05 0.03 66 1026.5
20260902024024 68 309 1.0 5.0 0.00 0.05 0.03 65 1026.4
20260902023524 68 0 2.0 5.0 0.00 0.05 0.03 64 1026.3
20260902023049 68 319 2.0 8.0 0.00 0.05 0.03 64 1026.3
20260902022529 69 281 2.0 9.0 0.00 0.05 0.03 65 1026.3
20260902022024 69 285 3.0 9.0 0.00 0.05 0.03 64 1026.2
20260902021548 69 273 3.0 9.0 0.00 0.05 0.03 63 1026.1
20260902021026 69 271 3.0 7.0 0.00 0.05 0.03 63 1026.1
20260902020525 70 268 1.0 9.0 0.00 0.05 0.03 62 1026.1
20260902020045 70 277 2.0 9.0 0.00 0.05 0.03 61 1026.0
20260902015525 70 277 2.0 6.0 0.00 0.08 0.03 58 1026.1
20260902015025 71 0 0.0 0.0 0.00 0.08 0.03 51 1025.9
20260902014546 72 0 0.0 0.0 0.00 0.08 0.03 50 1025.7
20260902014023 72 0 0.0 0.0 0.00 0.08 0.03 48 1025.8
20260902013529 73 0 0.0 0.0 0.00 0.08 0.03 48 1025.6
20260902013047 74 0 0.0 1.0 0.00 0.08 0.03 47 1025.7
20260902012525 74 0 0.0 3.0 0.00 0.08 0.03 45 1025.7
20260902012024 74 0 0.0 6.0 0.00 0.08 0.03 45 1025.7
20260902011543 74 107 1.0 6.0 0.00 0.08 0.03 44 1025.7
20260902011024 74 107 0.0 2.0 0.00 0.08 0.03 46 1025.7
20260902010525 74 0 0.0 6.0 0.00 0.08 0.03 44 1025.7
20260902010041 75 0 1.0 7.0 0.00 0.08 0.03 43 1025.6
20260902005525 75 103 3.0 7.0 0.00 0.10 0.03 42 1025.6
20260902005028 75 96 2.0 6.0 0.00 0.10 0.03 43 1025.6
20260902004551 75 190 0.0 4.0 0.00 0.10 0.03 42 1025.7
20260902004024 76 0 0.0 6.0 0.00 0.10 0.03 42 1025.7
20260902003524 76 190 2.0 7.0 0.00 0.10 0.03 41 1025.6
20260902003056 76 182 3.0 7.0 0.00 0.10 0.03 40 1025.7
20260902002524 76 116 2.0 9.0 0.00 0.10 0.03 40 1025.7
20260902002031 77 136 2.0 9.0 0.00 0.10 0.03 40 1025.8
20260902001546 78 106 2.0 8.0 0.00 0.10 0.03 39 1025.8
20260902001028 78 156 4.0 12.0 0.00 0.10 0.03 38 1025.8
20260902000525 80 142 7.0 12.0 0.00 0.10 0.03 37 1025.8
20260902000056 80 150 4.0 11.0 0.00 0.10 0.03 37 1025.7
20260901235527 80 92 5.0 11.0 0.00 0.12 0.03 38 1025.7
20260901235024 80 130 7.0 11.0 0.00 0.12 0.03 37 1025.8
20260901234550 80 111 5.0 11.0 0.00 0.12 0.03 37 1025.8
20260901234027 80 69 6.0 14.0 0.00 0.12 0.03 37 1025.8
20260901233528 80 128 5.0 18.0 0.00 0.12 0.03 38 1025.8
20260901233049 80 186 8.0 18.0 0.00 0.12 0.03 37 1025.8
20260901232524 79 146 3.0 11.0 0.00 0.12 0.03 38 1025.8
20260901232025 79 0 4.0 10.0 0.00 0.12 0.03 38 1025.7
20260901231549 79 184 5.0 15.0 0.00 0.12 0.03 38 1025.7
20260901231024 80 193 6.0 15.0 0.00 0.12 0.03 37 1025.7
20260901230525 80 152 7.0 12.0 0.00 0.12 0.03 37 1025.7
20260901230041 81 167 4.0 11.0 0.00 0.12 0.03 37 1025.7
20260901225528 80 215 3.0 13.0 0.00 0.13 0.03 38 1025.7
20260901225028 79 180 5.0 15.0 0.00 0.13 0.03 38 1025.8
20260901224552 80 201 6.0 15.0 0.00 0.13 0.03 37 1025.8
20260901224026 80 169 3.0 13.0 0.00 0.13 0.03 38 1025.8
20260901223528 79 182 7.0 13.0 0.00 0.13 0.03 39 1026.0
20260901223050 79 204 2.0 10.0 0.00 0.13 0.03 40 1025.9
20260901222523 79 116 4.0 12.0 0.00 0.13 0.03 40 1026.1
20260901222028 80 159 7.0 13.0 0.00 0.13 0.03 39 1026.1
20260901221543 80 150 7.0 16.0 0.00 0.13 0.03 38 1026.1
20260901221025 80 170 4.0 16.0 0.00 0.13 0.03 39 1026.1
20260901220531 81 141 6.0 12.0 0.00 0.13 0.03 39 1026.1
20260901220110 81 120 6.0 12.0 0.00 0.13 0.03 38 1026.1
20260901215524 81 60 6.0 13.0 0.00 0.13 0.03 38 1026.3
20260901215028 81 125 5.0 13.0 0.00 0.13 0.03 38 1026.3
20260901214548 80 65 6.0 13.0 0.00 0.13 0.03 38 1026.4
20260901214024 80 105 5.0 11.0 0.00 0.13 0.03 40 1026.4
20260901213524 80 130 6.0 17.0 0.00 0.13 0.03 39 1026.4
20260901213111 80 123 8.0 17.0 0.00 0.13 0.03 40 1026.5
20260901212525 80 123 6.0 14.0 0.00 0.13 0.03 41 1026.5
20260901212025 80 126 7.0 14.0 0.00 0.13 0.03 38 1026.6
20260901211542 80 161 7.0 12.0 0.00 0.13 0.03 40 1026.7
20260901211025 80 136 6.0 12.0 0.00 0.13 0.03 40 1026.7
20260901210526 79 171 4.0 11.0 0.00 0.13 0.03 43 1026.8
20260901210047 78 177 2.0 12.0 0.00 0.13 0.03 44 1026.9
20260901205528 79 99 7.0 12.0 0.00 0.13 0.03 41 1027.0
20260901205026 80 181 4.0 17.0 0.00 0.13 0.03 41 1027.0
20260901204548 80 85 7.0 17.0 0.00 0.13 0.03 42 1027.2
20260901204026 80 111 7.0 14.0 0.00 0.13 0.03 41 1027.2
20260901203527 79 0 4.0 13.0 0.00 0.13 0.03 41 1027.3
20260901203057 78 106 6.0 12.0 0.00 0.13 0.03 42 1027.3
20260901202526 78 157 3.0 14.0 0.00 0.13 0.03 42 1027.3
20260901202027 78 163 6.0 14.0 0.00 0.13 0.03 42 1027.3
20260901201551 78 163 5.0 10.0 0.00 0.13 0.03 42 1027.4
20260901201029 77 153 5.0 12.0 0.00 0.13 0.03 43 1027.6
20260901200535 77 119 5.0 12.0 0.00 0.13 0.03 45 1027.7
20260901200050 76 126 6.0 11.0 0.00 0.13 0.03 44 1027.8
20260901195523 76 159 6.0 13.0 0.00 0.13 0.03 45 1027.8
20260901195023 76 186 6.0 13.0 0.00 0.13 0.03 45 1027.8
20260901194551 76 159 5.0 11.0 0.00 0.13 0.03 44 1027.8
20260901194030 76 130 6.0 10.0 0.00 0.13 0.03 46 1027.9
20260901193524 76 133 5.0 9.0 0.00 0.13 0.03 47 1027.8
20260901193053 76 155 5.0 13.0 0.00 0.13 0.03 48 1027.9
20260901192525 76 193 6.0 13.0 0.00 0.13 0.03 47 1028.0
20260901192023 75 113 6.0 13.0 0.00 0.13 0.03 47 1028.0
20260901191543 75 123 4.0 11.0 0.00 0.13 0.03 51 1028.1
20260901191025 75 115 5.0 11.0 0.00 0.13 0.03 51 1028.1
20260901190527 74 171 5.0 10.0 0.00 0.13 0.03 51 1028.2
20260901190053 74 74 5.0 11.0 0.00 0.13 0.03 51 1028.3
20260901185526 74 173 5.0 12.0 0.00 0.13 0.03 50 1028.3
20260901185027 74 136 5.0 12.0 0.00 0.13 0.03 51 1028.3
20260901184549 74 163 5.0 11.0 0.00 0.13 0.03 50 1028.3
20260901184028 75 136 5.0 11.0 0.00 0.13 0.03 49 1028.3
20260901183529 76 102 3.0 9.0 0.00 0.13 0.03 51 1028.4
20260901183050 75 92 4.0 11.0 0.00 0.13 0.03 51 1028.4
20260901182525 74 0 2.0 11.0 0.00 0.13 0.03 52 1028.4
20260901182032 74 0 1.0 11.0 0.00 0.13 0.03 53 1028.4
20260901181544 74 154 6.0 11.0 0.00 0.13 0.03 52 1028.5
20260901181026 74 236 2.0 6.0 0.00 0.13 0.03 53 1028.5
20260901180530 74 179 1.0 11.0 0.00 0.13 0.03 55 1028.5
20260901180054 73 167 4.0 11.0 0.00 0.13 0.03 55 1028.6
20260901175525 73 173 3.0 9.0 0.00 0.13 0.03 56 1028.7
20260901175026 73 184 4.0 9.0 0.00 0.13 0.03 55 1028.8
20260901174548 72 0 4.0 10.0 0.00 0.13 0.03 58 1028.8
20260901174023 72 173 5.0 10.0 0.00 0.13 0.03 57 1028.8
20260901173529 73 152 4.0 9.0 0.00 0.13 0.03 58 1028.8
20260901173058 73 177 3.0 8.0 0.00 0.13 0.03 56 1028.8
20260901172525 72 172 2.0 12.0 0.00 0.13 0.03 58 1028.8
20260901172030 72 189 4.0 12.0 0.00 0.13 0.03 57 1028.8
20260901171549 71 156 4.0 10.0 0.00 0.13 0.03 57 1028.9
20260901171028 71 182 5.0 9.0 0.00 0.13 0.03 58 1028.8
20260901170526 71 105 4.0 9.0 0.00 0.13 0.03 57 1028.8
20260901170105 70 142 4.0 9.0 0.00 0.13 0.03 59 1028.7
20260901165526 70 140 3.0 7.0 0.00 0.13 0.03 59 1028.8
20260901165028 70 126 3.0 7.0 0.00 0.13 0.03 57 1028.7
20260901164551 71 145 2.0 8.0 0.00 0.13 0.03 57 1028.6
20260901164028 71 78 3.0 9.0 0.00 0.13 0.03 57 1028.6
20260901163528 71 76 2.0 9.0 0.00 0.13 0.03 60 1028.5
20260901163046 71 65 4.0 7.0 0.00 0.13 0.03 59 1028.5
20260901162524 71 83 1.0 8.0 0.00 0.13 0.03 61 1028.4
20260901162026 70 34 1.0 8.0 0.00 0.13 0.03 64 1028.4
20260901161543 70 77 3.0 8.0 0.00 0.13 0.03 66 1028.5
20260901161025 69 52 1.0 6.0 0.00 0.13 0.03 71 1028.4
20260901160527 68 0 1.0 4.0 0.00 0.13 0.03 70 1028.4
20260901160047 67 0 1.0 4.0 0.00 0.13 0.03 74 1028.5
20260901155525 67 194 1.0 5.0 0.00 0.13 0.03 76 1028.5
20260901155028 65 192 2.0 5.0 0.00 0.13 0.03 79 1028.5
20260901154542 64 0 1.0 4.0 0.00 0.13 0.03 83 1028.5
20260901154031 63 243 0.0 4.0 0.00 0.13 0.03 83 1028.4
20260901153526 62 241 1.0 3.0 0.00 0.13 0.03 83 1028.4
20260901153050 62 238 0.0 3.0 0.00 0.13 0.03 85 1028.4
20260901152525 61 0 0.0 3.0 0.00 0.13 0.03 85 1028.4
20260901152029 61 237 0.0 5.0 0.00 0.13 0.03 85 1028.4
20260901151547 61 0 1.0 5.0 0.00 0.13 0.03 84 1028.3
20260901151027 61 232 2.0 5.0 0.00 0.13 0.03 83 1028.3
20260901150526 61 224 0.0 5.0 0.00 0.13 0.03 84 1028.3
20260901150056 61 202 2.0 5.0 0.00 0.13 0.03 84 1028.3
20260901145525 61 216 2.0 5.0 0.00 0.13 0.03 84 1028.2
20260901145030 60 240 0.0 7.0 0.00 0.13 0.03 85 1028.2
20260901144551 60 240 2.0 7.0 0.00 0.13 0.03 85 1028.1
20260901144024 60 240 1.0 6.0 0.00 0.13 0.03 86 1028.1
20260901143528 60 0 0.0 4.0 0.00 0.13 0.03 86 1028.0
20260901143052 60 213 0.0 2.0 0.00 0.13 0.03 86 1028.1
20260901142524 60 0 0.0 3.0 0.00 0.13 0.03 86 1028.0
20260901142030 60 0 0.0 7.0 0.00 0.13 0.03 86 1027.9
20260901141545 60 191 2.0 7.0 0.00 0.13 0.03 85 1027.9
20260901141030 60 186 1.0 5.0 0.00 0.13 0.03 83 1028.0
20260901140523 60 186 1.0 5.0 0.00 0.13 0.03 82 1027.8
20260901135528 60 0 0.0 4.0 0.00 0.13 0.03 79 1027.7
20260901135024 60 296 1.0 4.0 0.00 0.13 0.03 79 1027.6
20260901134609 60 297 1.0 4.0 0.00 0.13 0.03 80 1027.6
20260901134025 60 297 1.0 5.0 0.00 0.13 0.03 80 1027.4
20260901133525 59 297 2.0 7.0 0.00 0.13 0.03 80 1027.4
20260901133056 59 294 3.0 9.0 0.00 0.13 0.03 81 1027.4
20260901132528 59 298 3.0 9.0 0.01 0.13 0.03 82 1027.4
20260901132026 59 308 5.0 10.0 0.01 0.13 0.03 83 1027.3
20260901131553 58 297 5.0 10.0 0.01 0.13 0.03 85 1027.4
20260901131032 58 298 4.0 10.0 0.01 0.13 0.03 85 1027.4